Regional Weather Roundup
Issued by NWS

Home | Current Version | Previous Version | Graphics & Text | Print | Product List | Glossary On
Versions: 1 2 3 4 5 6 7 8 9 10 11 12 13 14 15 16 17 18 19 20 21 22 23 24 25 26 27 28 29 30 31 32 33 34 35 36 37 38 39 40 41 42 43 44 45 46 47 48 49 50
000
ASUS43 KFSD 261210
RWRSD

WEATHER ROUNDUP FOR SOUTH DAKOTA
NATIONAL WEATHER SERVICE SIOUX FALLS SD
700 AM CDT THU MAR 26 2015

NOTE: "FAIR" INDICATES FEW OR NO CLOUDS BELOW 12,000 FEET WITH NO
SIGNIFICANT WEATHER AND/OR OBSTRUCTIONS TO VISIBILITY.


SDZ001>005-009-010-012>017-261300-
NORTHWEST AND NORTH CENTRAL SOUTH DAKOTA

CITY           SKY/WX    TMP DP  RH WIND       PRES   REMARKS
BUFFALO          N/A     31  25  78 E7        29.98S WCI  24
FAITH            N/A     30  21  69 SE9       30.08F WCI  22
MOBRIDGE       CLOUDY    24  21  88 CALM      30.14F
$$

SDZ012>016-024>037-041>051-057-063-072>074-261300-
SOUTHWEST AND SOUTH CENTRAL SOUTH DAKOTA

CITY           SKY/WX    TMP DP  RH WIND       PRES   REMARKS
RAPID CTY ARPT CLOUDY    31  25  78 W3        30.07F
PIERRE         CLOUDY    19  15  84 NE5       30.17F WCI  12
CUSTER         MOCLDY    29  23  78 W9        30.06F WCI  20
ELLSWORTH AFB  CLOUDY    36  27  69 SW7       30.05F
PHILIP         CLOUDY    20  16  84 CALM      30.13F
PINE RIDGE     CLOUDY    33  25  72 NW3       30.12S
SPEARFISH      CLOUDY    39  28  65 W17G24    30.06S
WINNER         FAIR      24  16  71 S5        30.18S WCI  18
$$

SDZ004>011-016>023-039-040-261300-
NORTHEAST SOUTH DAKOTA

CITY           SKY/WX    TMP DP  RH WIND       PRES   REMARKS
ABERDEEN       MOCLDY    24  20  84 N3        30.20R
WATERTOWN      CLEAR     27  23  85 NW9       30.15R WCI  18
SISSETON         N/A     26  23  88 NW9       30.18R WCI  17
$$

SDZ017-020-022-023-036>040-048>070-261300-
SOUTHEAST SOUTH DAKOTA

CITY           SKY/WX    TMP DP  RH WIND       PRES   REMARKS
SIOUX FALLS    PTCLDY    24  18  77 NW9       30.17R WCI  14
HURON          CLEAR     15  12  88 W3        30.20R
CHAMBERLAIN    PTCLDY    18  16  90 W5        30.20S WCI  11
MITCHELL       CLEAR     20  15  81 W7        30.21S WCI  11
YANKTON        CLEAR     19  14  79 NW6       30.22R WCI  11
$$

ABBREVIATIONS USED IN REMARKS
   TC - TEMPERATURE IN CELSIUS
  WCI - WIND CHILL INDEX
   HX - HEAT INDEX
  VSB - VISIBILITY



USA.gov is the U.S. government's official web portal to all federal, state and local government web resources and services.